Regional Weather Roundup
Issued by NWS

Home | Current Version | Previous Version | Graphics & Text | Print | Product List | Glossary On
Versions: 1 2 3 4 5 6 7 8 9 10 11 12 13 14 15 16 17 18 19 20 21 22 23 24 25 26 27 28 29 30 31 32 33 34 35 36 37 38 39 40 41 42 43 44 45 46 47 48 49 50
000
ASUS43 KDTX 231301
RWRMI
MICHIGAN HOURLY REGIONAL WEATHER ROUNDUP
NATIONAL WEATHER SERVICE DETROIT/PONTIAC MI
900 AM EDT WED APR 23 2014

NOTE: "FAIR" INDICATES FEW OR NO CLOUDS BELOW 12,000 FEET WITH NO
SIGNIFICANT WEATHER AND/OR OBSTRUCTION TO VISIBILITY.

MIZ047>049-052>055-059>063-066>070-074>076-081>083-231400-
SOUTHEAST LOWER MICHIGAN

CITY           SKY/WX    TMP DP  RH WIND       PRES   REMARKS
ADRIAN         PTSUNNY   38  28  67 N14       30.08R WCI  30
ALMA           SUNNY     37  28  72 NW10      30.12R WCI  29
ANN ARBOR      CLOUDY    37  28  70 N15G21    30.07R WCI  28
BAD AXE        SUNNY     37  28  70 N15G22    30.07R WCI  28
CARO           MOSUNNY   40  32  71 N17       30.08R WCI  31
DETROIT CITY   CLOUDY    41  28  60 N10       30.07R
DETROIT        CLOUDY    39  29  67 NW13      30.08R WCI  31
FLINT          MOSUNNY   39  28  64 N15       30.09R WCI  31
GROSSE ILE     CLOUDY    39  28  65 NW13G18   30.05R WCI  32
HILLSDALE      SUNNY     37  28  70 N14       30.07S WCI  28
HOWELL         CLOUDY    34  29  81 NW10      30.08S WCI  26

CITY           SKY/WX    TMP DP  RH WIND       PRES   REMARKS
JACKSON        SUNNY     37  28  70 N10       30.09R WCI  30
LAMBERTVILLE   CLOUDY    37  30  75 NW9       30.08R WCI  31
LANSING        SUNNY     37  28  70 NW8       30.12R WCI  31
LAPEER         PTSUNNY   37  30  77 N7        30.07R WCI  31
MASON          SUNNY     36  29  75 N9G17     30.10R WCI  29
MONROE         CLOUDY    37  30  75 NW14      30.06R WCI  29
MT. CLEMENS    CLOUDY    39  29  65 NW16      30.04R WCI  30
PONTIAC        CLOUDY    36  28  73 NW10      30.05R WCI  28
PORT HOPE        N/A     38  30  73 N9        30.05R WCI  31
PORT HURON     CLOUDY    37  30  75 N12G18    30.05R WCI  30
TRI CITIES     SUNNY     39  28  64 N14       30.10R WCI  31
TROY           CLOUDY    38  28  69 N12       30.07R WCI  30
SAGINAW HB     SUNNY     37  30  75 N12       30.09S WCI  30
YPSILANTI      CLOUDY    40  28  62 N14       30.08R WCI  32
$$
MIZ043>046-050>051-056>058-064>065-071>073-077>080-231400-
SOUTHWEST LOWER MICHIGAN

CITY           SKY/WX    TMP DP  RH WIND       PRES   REMARKS
BATTLE CREEK   SUNNY     37  27  67 N10       30.12R WCI  30
BENTON HARBOR  SUNNY     37  31  78 VRB6      30.14R WCI  32
BIG RAPIDS     SUNNY     35  28  74 N8        30.13R WCI  28
COLDWATER      SUNNY     36  28  74 N13       30.10R WCI  27
FREMONT        FAIR      36  28  74 N6        30.15R WCI  31
HOLLAND        SUNNY     39  28  64 N10       30.15R WCI  32
GRAND RAPIDS   MOSUNNY   38  27  64 N13       30.13R WCI  30
IONIA          FAIR      36  28  74 N9        30.12R WCI  29
KALAMAZOO      SUNNY     37  27  67 N13       30.13R WCI  29
LUDINGTON      SUNNY     37  30  77 N5        30.16S WCI  33
MARSHALL       SUNNY     35  27  73 N5        30.10R WCI  31
MOUNT PLEASANT SUNNY     37  28  71 NW7       30.11R WCI  31
MUSKEGON       MOSUNNY   39  26  59 N8        30.16R WCI  33
SOUTH HAVEN    SUNNY     38  27  64 N12G18    30.14S WCI  31
$$
MIZ016>042-231400-
NORTHERN LOWER MICHIGAN

CITY           SKY/WX    TMP DP  RH WIND       PRES   REMARKS
ALPENA         SUNNY     36  21  54 N13       30.10R WCI  27
BEAVER ISLAND  SUNNY     33  24  70 NW6       30.16R WCI  28
BELLAIRE       SUNNY     34  26  72 N3        30.14S
CADILLAC       SUNNY     33  26  74 N7        30.11R WCI  27
CHARLEVOIX     SUNNY     33  28  82 NW6       30.19R WCI  28
FRANKFORT      SUNNY     35  30  83 N3        30.17R
GAYLORD        SUNNY     33  19  56 VRB7      30.10R WCI  27
GRAYLING       SUNNY     35  22  60 N12       30.11R WCI  27
HARBOR SPRINGS SUNNY     35  22  58 NW5       30.13R WCI  31
HOUGHTON LAKE  SUNNY     35  23  61 N8        30.10R WCI  29
MANISTEE       SUNNY     37  27  65 N9        30.16S WCI  31
OSCODA         SUNNY     38  24  58 N13       30.08R WCI  30
PELLSTON       SUNNY     36  19  50 N9        30.14R WCI  29
ROGERS CITY    SUNNY     35  24  64 N9        30.13R WCI  27
TRAVERSE CITY  MOSUNNY   35  25  66 N7        30.14R WCI  29
$$
MIZ007>008-015-231400-
EASTERN UPPER MICHIGAN

CITY           SKY/WX    TMP DP  RH WIND       PRES   REMARKS
KINROSS        SUNNY     34  18  51 N9        30.12R WCI  26
MACKINAC ISLAN SUNNY     33  23  65 NW3       30.13R
NEWBERRY       SUNNY     31  21  64 N6        30.14R WCI  26
S. S. MARIE    SUNNY     34  16  47 NW5       30.12R WCI  30
MUNISING         N/A     34  26  72 N3        30.19R
$$
MIZ004>006-011>014-085-231400-
CENTRAL UPPER MICHIGAN

CITY           SKY/WX    TMP DP  RH WIND       PRES   REMARKS
MANISTIQUE     SUNNY     33  26  75 NW8       30.17R WCI  26
ESCANABA       SUNNY     36  27  69 NW6       30.18S WCI  31
MENOMINEE      SUNNY     36  27  69 N7        30.19R WCI  30
SAWYER-GWINN   SUNNY     32  27  80 N3        30.16R
$$
MIZ001>003-009>011-084-231400-
WESTERN UPPER MICHIGAN

CITY           SKY/WX    TMP DP  RH WIND       PRES   REMARKS
IRON MOUNTAIN  SUNNY     33  26  75 NW3       30.16S
HOUGHTON       SUNNY     36  27  69 CALM      30.16R
COPPER HARBOR    N/A     37  27  67 CALM      30.18R
IRONWOOD       MOSUNNY   34  25  69 CALM      30.13S
$$

ABBREVIATIONS USED IN REMARKS
   TC - TEMPERATURE IN CELSIUS
  WCI - WIND CHILL INDEX
   HX - HEAT INDEX
  VSB - VISIBILITY




USA.gov is the U.S. government's official web portal to all federal, state and local government web resources and services.